Time,TemperatureF,DewpointF,PressureIn,WindDirection,WindDirectionDegrees,WindSpeedMPH,WindSpeedGustMPH,Humidity,HourlyPrecipIn,Conditions,Clouds,dailyrainin,SoftwareType,DateUTC
2013-06-23 00:00:00,70.6,61.0,30.12,ESE,112,0.0,-999.0,71,-99.99,,,0.00,weatherlink.com 1.10,2013-06-23 04:00:00,
2013-06-23 00:15:00,70.4,61.0,30.12,ESE,112,0.0,-999.0,73,-99.99,,,0.00,weatherlink.com 1.10,2013-06-23 04:15:00,
2013-06-23 00:30:00,70.3,62.0,30.12,ESE,112,0.0,-999.0,74,-99.99,,,0.00,weatherlink.com 1.10,2013-06-23 04:30:00,
2013-06-23 00:45:00,69.8,62.0,30.12,ESE,112,0.0,-999.0,76,-99.99,,,0.00,weatherlink.com 1.10,2013-06-23 04:45:00,
2013-06-23 01:01:00,69.6,62.0,30.12,ESE,112,0.0,-999.0,77,-99.99,,,0.00,weatherlink.com 1.10,2013-06-23 05:01:00,
2013-06-23 01:16:00,69.3,63.0,30.12,ESE,112,0.0,-999.0,80,-99.99,,,0.00,weatherlink.com 1.10,2013-06-23 05:16:00,
2013-06-23 01:31:00,68.9,65.0,30.12,ESE,112,0.0,-999.0,87,-99.99,,,0.00,weatherlink.com 1.10,2013-06-23 05:31:00,
2013-06-23 01:46:00,68.6,68.0,30.11,ESE,112,0.0,-999.0,96,-99.99,,,0.00,weatherlink.com 1.10,2013-06-23 05:46:00,
2013-06-23 02:00:00,68.3,68.0,30.11,ESE,112,0.0,-999.0,98,-99.99,,,0.00,weatherlink.com 1.10,2013-06-23 06:00:00,
2013-06-23 02:15:00,67.9,68.0,30.11,ESE,112,0.0,-999.0,99,-99.99,,,0.00,weatherlink.com 1.10,2013-06-23 06:15:00,
2013-06-23 02:30:00,67.6,68.0,30.11,ESE,112,0.0,-999.0,100,-99.99,,,0.00,weatherlink.com 1.10,2013-06-23 06:30:00,
2013-06-23 02:45:00,67.3,67.0,30.10,ESE,112,0.0,-999.0,100,-99.99,,,0.00,weatherlink.com 1.10,2013-06-23 06:45:00,
2013-06-23 03:00:00,67.1,67.0,30.10,ESE,112,0.0,-999.0,100,-99.99,,,0.00,weatherlink.com 1.10,2013-06-23 07:00:00,
2013-06-23 03:15:00,66.8,67.0,30.10,ESE,112,0.0,-999.0,100,-99.99,,,0.00,weatherlink.com 1.10,2013-06-23 07:15:00,
2013-06-23 03:30:00,66.4,66.0,30.10,ESE,112,0.0,-999.0,100,-99.99,,,0.00,weatherlink.com 1.10,2013-06-23 07:30:00,
2013-06-23 03:45:00,66.1,66.0,30.09,ESE,112,0.0,-999.0,100,-99.99,,,0.00,weatherlink.com 1.10,2013-06-23 07:45:00,
2013-06-23 04:00:00,65.8,66.0,30.09,ESE,112,0.0,-999.0,100,-99.99,,,0.00,weatherlink.com 1.10,2013-06-23 08:00:00,
2013-06-23 04:15:00,65.5,66.0,30.08,ESE,112,0.0,-999.0,100,-99.99,,,0.00,weatherlink.com 1.10,2013-06-23 08:15:00,
2013-06-23 04:30:00,65.3,65.0,30.08,ESE,112,0.0,-999.0,100,-99.99,,,0.00,weatherlink.com 1.10,2013-06-23 08:30:00,
2013-06-23 04:45:00,65.0,65.0,30.08,ESE,112,0.0,-999.0,100,-99.99,,,0.00,weatherlink.com 1.10,2013-06-23 08:45:00,
2013-06-23 05:00:00,64.5,65.0,30.08,ESE,112,0.0,-999.0,100,-99.99,,,0.00,weatherlink.com 1.10,2013-06-23 09:00:00,
2013-06-23 05:15:00,64.2,64.0,30.08,ESE,112,0.0,-999.0,100,-99.99,,,0.00,weatherlink.com 1.10,2013-06-23 09:15:00,
2013-06-23 05:30:00,64.0,64.0,30.09,ESE,112,0.0,-999.0,100,-99.99,,,0.00,weatherlink.com 1.10,2013-06-23 09:30:00,
2013-06-23 05:46:00,63.9,64.0,30.09,ESE,112,0.0,-999.0,100,-99.99,,,0.00,weatherlink.com 1.10,2013-06-23 09:46:00,
2013-06-23 06:01:00,64.0,64.0,30.09,ESE,112,0.0,-999.0,100,-99.99,,,0.00,weatherlink.com 1.10,2013-06-23 10:01:00,
2013-06-23 06:16:00,64.3,64.0,30.09,ESE,112,0.0,-999.0,100,-99.99,,,0.00,weatherlink.com 1.10,2013-06-23 10:16:00,
2013-06-23 06:31:00,64.7,65.0,30.09,ESE,112,0.0,-999.0,100,-99.99,,,0.00,weatherlink.com 1.10,2013-06-23 10:31:00,
2013-06-23 06:46:00,65.0,65.0,30.09,ESE,112,0.0,-999.0,100,-99.99,,,0.00,weatherlink.com 1.10,2013-06-23 10:46:00,
2013-06-23 07:01:00,65.5,66.0,30.09,ESE,112,0.0,-999.0,100,-99.99,,,0.00,weatherlink.com 1.10,2013-06-23 11:01:00,
2013-06-23 07:16:00,65.8,66.0,30.10,ESE,112,0.0,-999.0,100,-99.99,,,0.00,weatherlink.com 1.10,2013-06-23 11:16:00,
2013-06-23 07:31:00,66.4,66.0,30.10,ESE,112,0.0,-999.0,100,-99.99,,,0.00,weatherlink.com 1.10,2013-06-23 11:31:00,
2013-06-23 07:46:00,67.3,67.0,30.11,ESE,112,0.0,-999.0,100,-99.99,,,0.00,weatherlink.com 1.10,2013-06-23 11:46:00,
2013-06-23 08:00:00,67.9,68.0,30.11,ESE,112,0.0,-999.0,100,-99.99,,,0.00,weatherlink.com 1.10,2013-06-23 12:00:00,
2013-06-23 08:15:00,68.6,68.0,30.11,ESE,112,0.0,-999.0,97,-99.99,,,0.00,weatherlink.com 1.10,2013-06-23 12:15:00,
2013-06-23 08:30:00,69.4,68.0,30.11,ESE,112,0.0,-999.0,96,-99.99,,,0.00,weatherlink.com 1.10,2013-06-23 12:30:00,
2013-06-23 08:46:00,69.9,68.0,30.11,ESE,102,0.0,-999.0,93,-99.99,,,0.00,weatherlink.com 1.10,2013-06-23 12:46:00,
2013-06-23 09:01:00,70.9,67.0,30.11,ESE,102,0.0,-999.0,88,-99.99,,,0.00,weatherlink.com 1.10,2013-06-23 13:01:00,
2013-06-23 09:16:00,71.8,64.0,30.10,ESE,102,0.0,-999.0,77,-99.99,,,0.00,weatherlink.com 1.10,2013-06-23 13:16:00,
2013-06-23 09:31:00,73.0,65.0,30.10,ESE,102,0.0,-999.0,75,-99.99,,,0.00,weatherlink.com 1.10,2013-06-23 13:31:00,
2013-06-23 09:46:00,74.2,65.0,30.09,ESE,102,0.0,-999.0,72,-99.99,,,0.00,weatherlink.com 1.10,2013-06-23 13:46:00,
2013-06-23 10:01:00,76.3,65.0,30.09,ESE,102,0.0,-999.0,69,-99.99,,,0.00,weatherlink.com 1.10,2013-06-23 14:01:00,
2013-06-23 10:16:00,77.0,65.0,30.08,ESE,102,0.0,-999.0,66,-99.99,,,0.00,weatherlink.com 1.10,2013-06-23 14:16:00,
2013-06-23 10:31:00,77.7,65.0,30.08,ESE,102,0.0,-999.0,66,-99.99,,,0.00,weatherlink.com 1.10,2013-06-23 14:31:00,
2013-06-23 10:46:00,78.3,66.0,30.08,ESE,102,0.0,-999.0,67,-99.99,,,0.00,weatherlink.com 1.10,2013-06-23 14:46:00,
2013-06-23 11:01:00,78.5,68.0,30.08,ESE,102,0.0,-999.0,71,-99.99,,,0.00,weatherlink.com 1.10,2013-06-23 15:01:00,
2013-06-23 11:16:00,78.5,68.0,30.08,ESE,102,0.0,-999.0,71,-99.99,,,0.00,weatherlink.com 1.10,2013-06-23 15:16:00,
2013-06-23 11:31:00,78.5,69.0,30.08,ESE,102,0.0,-999.0,72,-99.99,,,0.00,weatherlink.com 1.10,2013-06-23 15:31:00,
2013-06-23 11:46:00,78.6,69.0,30.08,ESE,102,0.0,-999.0,73,-99.99,,,0.00,weatherlink.com 1.10,2013-06-23 15:46:00,
2013-06-23 12:01:00,79.2,70.0,30.07,ESE,102,0.0,-999.0,73,-99.99,,,0.00,weatherlink.com 1.10,2013-06-23 16:01:00,
2013-06-23 12:16:00,80.7,69.0,30.06,ESE,102,0.0,-999.0,68,-99.99,,,0.00,weatherlink.com 1.10,2013-06-23 16:16:00,
2013-06-23 12:46:00,84.5,70.0,30.05,SE,128,0.0,-999.0,62,-99.99,,,0.00,weatherlink.com 1.10,2013-06-23 16:46:00,
2013-06-23 13:16:00,89.9,71.0,30.03,ESE,112,0.0,-999.0,54,-99.99,,,0.00,weatherlink.com 1.10,2013-06-23 17:16:00,
2013-06-23 13:31:00,91.6,69.0,30.02,ESE,116,0.0,-999.0,48,-99.99,,,0.00,weatherlink.com 1.10,2013-06-23 17:31:00,
2013-06-23 13:45:00,92.1,70.0,30.02,SE,143,0.0,-999.0,48,-99.99,,,0.00,weatherlink.com 1.10,2013-06-23 17:45:00,
2013-06-23 14:01:00,92.9,70.0,30.01,SE,143,0.0,-999.0,47,-99.99,,,0.00,weatherlink.com 1.10,2013-06-23 18:01:00,
2013-06-23 14:16:00,92.9,69.0,30.00,WNW,302,0.0,-999.0,46,-99.99,,,0.00,weatherlink.com 1.10,2013-06-23 18:16:00,
2013-06-23 14:31:00,92.7,66.0,30.00,SSW,210,1.0,-999.0,42,-99.99,,,0.00,weatherlink.com 1.10,2013-06-23 18:31:00,
2013-06-23 14:45:00,92.9,65.0,30.00,NW,313,1.0,-999.0,40,-99.99,,,0.00,weatherlink.com 1.10,2013-06-23 18:45:00,
2013-06-23 15:01:00,93.6,67.0,29.99,SSW,195,1.0,-999.0,42,-99.99,,,0.00,weatherlink.com 1.10,2013-06-23 19:01:00,
2013-06-23 15:15:00,94.0,65.0,29.99,SSW,206,0.0,-999.0,39,-99.99,,,0.00,weatherlink.com 1.10,2013-06-23 19:15:00,
2013-06-23 15:31:00,93.6,66.0,29.98,NNW,336,0.0,-999.0,40,-99.99,,,0.00,weatherlink.com 1.10,2013-06-23 19:31:00,
2013-06-23 15:46:00,93.2,66.0,29.98,WSW,251,2.0,-999.0,41,-99.99,,,0.00,weatherlink.com 1.10,2013-06-23 19:46:00,
2013-06-23 16:01:00,92.3,67.0,29.97,WNW,282,0.0,-999.0,44,-99.99,,,0.00,weatherlink.com 1.10,2013-06-23 20:01:00,
2013-06-23 16:16:00,92.7,67.0,29.97,South,184,0.0,-999.0,43,-99.99,,,0.00,weatherlink.com 1.10,2013-06-23 20:16:00,
2013-06-23 16:31:00,92.3,68.0,29.97,NNW,332,0.0,-999.0,45,-99.99,,,0.00,weatherlink.com 1.10,2013-06-23 20:31:00,
2013-06-23 16:45:00,91.8,67.0,29.97,NW,309,3.0,-999.0,44,-99.99,,,0.00,weatherlink.com 1.10,2013-06-23 20:45:00,
2013-06-23 17:01:00,90.7,68.0,29.96,WSW,254,0.0,-999.0,47,-99.99,,,0.00,weatherlink.com 1.10,2013-06-23 21:01:00,
2013-06-23 17:15:00,90.3,68.0,29.96,South,188,0.0,-999.0,48,-99.99,,,0.00,weatherlink.com 1.10,2013-06-23 21:15:00,
2013-06-23 17:31:00,89.3,68.0,29.95,SW,229,0.0,-999.0,50,-99.99,,,0.00,weatherlink.com 1.10,2013-06-23 21:31:00,
2013-06-23 17:46:00,88.6,67.0,29.95,NNW,333,1.0,-999.0,49,-99.99,,,0.00,weatherlink.com 1.10,2013-06-23 21:46:00,
2013-06-23 18:01:00,87.8,69.0,29.94,NNW,340,0.0,-999.0,53,-99.99,,,0.00,weatherlink.com 1.10,2013-06-23 22:01:00,
2013-06-23 18:16:00,87.2,68.0,29.95,NNW,330,0.0,-999.0,53,-99.99,,,0.00,weatherlink.com 1.10,2013-06-23 22:16:00,
2013-06-23 18:31:00,86.7,66.0,29.97,WSW,258,0.0,-999.0,50,-99.99,,,0.00,weatherlink.com 1.10,2013-06-23 22:31:00,
2013-06-23 18:46:00,86.3,66.0,29.97,WNW,287,0.0,-999.0,50,-99.99,,,0.00,weatherlink.com 1.10,2013-06-23 22:46:00,
2013-06-23 19:01:00,85.5,65.0,29.96,WSW,243,0.0,-999.0,51,-99.99,,,0.00,weatherlink.com 1.10,2013-06-23 23:01:00,
2013-06-23 19:15:00,84.9,65.0,29.96,WNW,294,0.0,-999.0,51,-99.99,,,0.00,weatherlink.com 1.10,2013-06-23 23:15:00,
2013-06-23 19:31:00,84.3,65.0,29.96,North,352,0.0,-999.0,53,-99.99,,,0.00,weatherlink.com 1.10,2013-06-23 23:31:00,
2013-06-23 19:46:00,83.6,66.0,29.97,North,353,0.0,-999.0,55,-99.99,,,0.00,weatherlink.com 1.10,2013-06-23 23:46:00,
2013-06-23 20:01:00,82.8,65.0,29.97,NNE,32,0.0,-999.0,56,-99.99,,,0.00,weatherlink.com 1.10,2013-06-24 00:01:00,
2013-06-23 20:16:00,82.0,65.0,29.97,NNE,31,0.0,-999.0,57,-99.99,,,0.00,weatherlink.com 1.10,2013-06-24 00:16:00,
2013-06-23 20:31:00,81.4,65.0,29.98,NNE,31,0.0,-999.0,58,-99.99,,,0.00,weatherlink.com 1.10,2013-06-24 00:31:00,
2013-06-23 20:45:00,80.7,65.0,29.98,NNE,31,0.0,-999.0,60,-99.99,,,0.00,weatherlink.com 1.10,2013-06-24 00:45:00,
2013-06-23 21:01:00,79.9,66.0,29.99,NNE,31,0.0,-999.0,63,-99.99,,,0.00,weatherlink.com 1.10,2013-06-24 01:01:00,
2013-06-23 21:16:00,79.2,66.0,30.00,NNE,31,0.0,-999.0,65,-99.99,,,0.00,weatherlink.com 1.10,2013-06-24 01:16:00,
2013-06-23 21:31:00,78.6,67.0,30.00,NNE,31,0.0,-999.0,67,-99.99,,,0.00,weatherlink.com 1.10,2013-06-24 01:31:00,
2013-06-23 21:46:00,77.9,67.0,30.01,NNE,31,0.0,-999.0,69,-99.99,,,0.00,weatherlink.com 1.10,2013-06-24 01:46:00,
2013-06-23 22:01:00,77.4,67.0,30.01,NNE,31,0.0,-999.0,71,-99.99,,,0.00,weatherlink.com 1.10,2013-06-24 02:01:00,
2013-06-23 22:16:00,76.7,67.0,30.01,NNE,31,0.0,-999.0,72,-99.99,,,0.00,weatherlink.com 1.10,2013-06-24 02:16:00,
2013-06-23 22:31:00,76.0,67.0,30.01,NNE,31,0.0,-999.0,74,-99.99,,,0.00,weatherlink.com 1.10,2013-06-24 02:31:00,
2013-06-23 22:46:00,75.4,67.0,30.00,NNE,31,0.0,-999.0,76,-99.99,,,0.00,weatherlink.com 1.10,2013-06-24 02:46:00,
2013-06-23 23:01:00,74.9,68.0,30.00,NNE,31,0.0,-999.0,78,-99.99,,,0.00,weatherlink.com 1.10,2013-06-24 03:01:00,
2013-06-23 23:16:00,74.6,68.0,29.99,NNE,31,0.0,-999.0,80,-99.99,,,0.00,weatherlink.com 1.10,2013-06-24 03:16:00,
2013-06-23 23:31:00,74.4,69.0,29.99,NNE,31,0.0,-999.0,82,-99.99,,,0.00,weatherlink.com 1.10,2013-06-24 03:31:00,
2013-06-23 23:46:00,74.0,69.0,29.99,NNE,31,0.0,-999.0,85,-99.99,,,0.00,weatherlink.com 1.10,2013-06-24 03:46:00,